[[{"header":{"parameterUnit":"m.s-1","parameterCategory":1,"la1":30.2991,"la2":30.254,"lo1":-89.0895,"lo2":-89.0444,"dy":0.0017,"dx":0.0017,"nx":28,"ny":28,"refTime":"2025-11-13T09:00:00:Z","depth":0,"parameterNumber":2,"parameterNumberName":"U-component_of_WINDS"},"data":[0,0,0,0,0,0,0,0,0,0,0,0,0,0,0,0,0,0,0,0,0,0,0,0,0,0,0,0,0,0,0,0,0,0,0,0,0,0,0,0,0,0,0,0,0,0,0,0,0,0,0,0,0,0,0,0,0,0,2.3287,2.3289,0,2.3436,2.3438,2.344,2.3416,2.3413,2.341,2.3408,2.3562,2.3568,2.3575,0,0,0,0,0,0,0,0,0,0,0,0,0,2.2982,2.2988,2.3287,2.3289,2.3291,2.3436,2.3438,2.344,2.3416,2.3413,2.341,2.3407,2.356,2.3568,2.3576,0,0,0,0,0,0,0,0,0,0,0,0,0,2.3121,2.2989,2.3287,2.3296,2.3298,2.3436,2.3438,2.3441,2.3417,2.3413,2.3409,2.3405,2.3557,2.3567,2.3577,2.3714,0,0,2.3606,2.3611,0,0,0,0,0,0,0,0,2.3113,2.3132,2.3293,2.3296,2.3299,2.3403,2.3387,2.3532,2.3418,2.3372,2.3408,2.3403,2.3513,2.3526,2.3562,2.3721,2.3728,2.3607,2.3613,2.3617,2.362,0,0,0,0,0,0,0,2.3104,2.3126,2.3346,2.3295,2.3299,2.3293,2.3309,2.3414,2.3462,2.3376,2.3374,2.3392,2.3513,2.3553,2.3566,2.373,2.3607,2.3616,2.3622,2.3625,2.4009,2.4013,0,0,0,0,0,0,2.3091,2.3118,2.3341,2.335,2.3194,2.3302,2.3319,2.3374,2.3461,2.347,2.3395,2.339,2.3538,2.3554,2.3571,2.3737,2.3617,2.3626,2.3632,2.4005,2.401,2.4015,0,0,0,0,0,0,2.3085,2.3111,2.3335,2.3234,2.3262,2.3311,2.3373,2.3379,2.3418,2.3476,2.3484,2.3427,2.3536,2.3557,2.3679,2.3742,2.3631,2.364,2.4,2.4006,2.4012,2.4071,0,0,0,0,0,0,2.3076,2.3109,2.3161,2.3235,2.3267,2.344,2.3377,2.3384,2.3435,2.343,2.3508,2.3517,2.3534,2.3664,2.3688,2.3754,2.3647,2.3994,2.4003,2.401,2.4063,2.4078,2.4091,0,0,0,0,0,2.3065,2.3172,2.3164,2.3191,2.3334,2.3444,2.3462,2.348,2.344,2.3493,2.353,2.3514,2.3732,2.3677,2.3704,2.3773,2.399,2.4,2.401,2.4057,2.4075,2.4091,0,0,0,0,0,0,2.3105,2.3182,2.3174,2.3308,2.337,2.3439,2.3507,2.3499,2.3573,2.3566,2.3585,2.3603,2.3725,2.3762,2.3699,2.391,2.3855,2.3871,2.3882,2.39,2.3914,2.3902,2.3655,0,0,0,0,0,2.3129,2.3212,2.3275,2.3387,2.3418,2.3458,2.3506,2.3514,2.3579,2.3605,2.3651,2.3714,2.3797,2.3851,2.393,2.4069,2.4085,2.413,2.4144,2.4155,2.4168,2.4244,2.4264,2.4047,2.4047,2.4047,0,0,2.318,2.3233,2.3284,2.3396,2.3445,2.353,2.3479,2.3572,2.3635,2.3619,2.3736,2.3772,2.3844,2.3975,2.4034,2.4008,2.4232,2.4167,2.4176,2.4183,2.4256,2.4276,2.4294,2.4054,2.4052,2.4051,0,0,2.3317,2.3365,2.3463,2.3513,2.3587,2.3613,2.3636,2.3708,2.3731,2.3849,2.3838,2.3914,2.4056,2.4108,2.4152,2.4309,2.4297,2.4334,2.4407,2.4481,2.4498,2.4513,2.4568,2.4588,2.4347,2.4348,2.4348,0,2.3371,2.3498,2.3515,2.3608,2.3658,2.3648,2.3747,2.3795,2.3891,2.3926,2.3896,2.4073,2.4121,2.4263,2.4302,2.4339,2.4366,2.4325,2.4494,2.4509,2.4524,2.4576,2.4597,2.4352,2.4351,2.4351,2.435,0,2.3561,2.3649,2.372,2.3813,2.3871,2.3967,2.3999,2.4055,2.4059,2.4088,2.4208,2.4265,2.4355,2.439,2.4395,2.4533,2.4515,2.4489,2.4434,2.4548,2.4598,2.4618,2.4357,2.4356,2.4355,2.4354,0,0,2.3725,2.3826,2.3852,2.3894,2.3975,2.4044,2.414,2.4228,2.4275,2.4343,2.4423,2.4544,2.4521,2.4572,2.4582,2.4647,2.4766,2.4614,2.4616,2.4639,2.4922,2.4939,2.4962,2.4759,2.4763,2.4766,2.4915,0,2.3868,2.4037,2.4055,2.4206,2.4287,2.4279,2.4363,2.4422,2.4451,2.4525,2.4558,2.4643,2.4606,2.4637,2.4701,2.4738,2.4823,2.4728,2.4834,2.4838,2.4815,2.4988,2.5008,2.5145,2.4935,2.4938,2.494,0,2.4058,2.4129,2.4288,2.4357,2.4392,2.4467,2.4549,2.462,2.4687,2.4704,2.4761,2.4763,2.4862,2.4805,2.4941,2.4876,2.4921,2.4946,2.4952,2.4961,2.4895,2.5001,2.5189,2.5209,2.4971,2.4969,2.4967,0,2.416,2.4297,2.4409,2.4445,2.453,2.4582,2.462,2.4683,2.4735,2.4807,2.484,2.4923,2.4969,2.5033,2.5058,2.5013,2.5193,2.5137,2.5209,2.5209,2.5246,2.5244,2.5443,2.5278,2.5277,2.5277,2.5277,0,2.4317,2.4414,2.4456,2.4525,2.4634,2.4654,2.4761,2.4797,2.4853,2.4929,2.4928,2.4999,2.5028,2.5104,2.5124,2.5234,2.5254,2.5271,2.5275,2.527,2.5268,2.5299,2.5289,2.5282,2.5281,2.528,2.5279,0,2.445,2.4482,2.4603,2.4673,2.4693,2.477,2.483,2.4897,2.4926,2.5022,2.5046,2.5091,2.5181,2.5212,2.5321,2.5335,2.5462,2.5458,2.5439,2.5439,2.5509,2.5502,2.5734,2.5766,2.5581,2.5583,2.5584,0,2.4547,2.4621,2.4699,2.475,2.4789,2.4871,2.4923,2.4947,2.5002,2.5084,2.514,2.5229,2.5301,2.5445,2.5488,2.5571,2.5569,2.5645,2.5581,2.5574,2.5569,2.5563,2.557,2.5656,2.5658,2.566,2.5661,0,2.4716,2.4728,2.4804,2.4886,2.4948,2.5014,2.5077,2.5119,2.5152,2.5214,2.5305,2.5361,2.5472,2.556,2.5645,2.5684,2.5678,2.5681,2.5702,2.5697,2.5682,2.569,2.547,2.5675,2.5673,2.5672,2.5672,2.5671,2.4833,2.4899,2.4963,2.5048,2.5098,2.5157,2.5223,2.526,2.5337,2.5428,2.5438,2.5536,2.5601,2.5715,2.5758,2.5835,2.5814,2.5845,2.5853,2.5859,2.5864,2.5671,2.5851,2.5851,2.5851,2.585,2.585,0,2.5001,2.5042,2.512,2.5208,2.5275,2.5264,2.5333,2.5389,2.5476,2.5537,2.5608,2.5713,2.5798,2.5848,2.5934,2.5986,2.5985,2.6008,2.6003,2.6012,2.5879,2.5851,2.6006,2.6006,2.6006,2.6006,2.6006,2.6006,2.5096,2.5206,2.5226,2.5361,2.5402,2.5497,2.5538,2.5593,2.5641,2.5758,2.5829,2.5861,2.5918,2.6008,2.6086,2.6098,2.6129,2.6154,2.6164,2.6038,2.6022,2.6006,2.5981,2.616,2.6161,2.6291,2.6292,2.6293]},{"header":{"parameterUnit":"m.s-1","parameterCategory":1,"la1":30.2991,"la2":30.254,"lo1":-89.0895,"lo2":-89.0444,"dy":0.0017,"dx":0.0017,"nx":28,"ny":28,"refTime":"2025-11-13T09:00:00:Z","depth":0,"parameterNumber":3,"parameterNumberName":"V-component_of_WINDS"},"data":[0,0,0,0,0,0,0,0,0,0,0,0,0,0,0,0,0,0,0,0,0,0,0,0,0,0,0,0,0,0,0,0,0,0,0,0,0,0,0,0,0,0,0,0,0,0,0,0,0,0,0,0,0,0,0,0,0,0,0.2103,0.2104,0,0.216,0.216,0.2161,0.2121,0.2119,0.2117,0.2115,0.2174,0.2177,0.2181,0,0,0,0,0,0,0,0,0,0,0,0,0,0.196,0.1962,0.2103,0.2104,0.2104,0.216,0.216,0.2161,0.2121,0.2119,0.2117,0.2115,0.2173,0.2177,0.2181,0,0,0,0,0,0,0,0,0,0,0,0,0,0.202,0.1963,0.2103,0.2091,0.209,0.216,0.216,0.2161,0.2121,0.2119,0.2116,0.2113,0.2172,0.2177,0.2181,0.2266,0,0,0.2196,0.2198,0,0,0,0,0,0,0,0,0.2016,0.2025,0.2092,0.2092,0.2091,0.213,0.2131,0.2196,0.2122,0.211,0.2115,0.2112,0.2162,0.2167,0.2184,0.2268,0.2271,0.2197,0.22,0.2202,0.2203,0,0,0,0,0,0,0,0.2012,0.2022,0.2125,0.2093,0.2093,0.2083,0.2088,0.2144,0.215,0.2111,0.2108,0.2115,0.2161,0.2179,0.2185,0.2272,0.2197,0.2201,0.2204,0.2206,0.2427,0.243,0,0,0,0,0,0,0.2009,0.2019,0.2124,0.2127,0.2046,0.2088,0.2094,0.2121,0.215,0.2151,0.2117,0.2113,0.2172,0.2179,0.2187,0.2288,0.2202,0.2206,0.2209,0.2424,0.2428,0.2431,0,0,0,0,0,0,0.2006,0.2019,0.2121,0.2072,0.2085,0.2093,0.2123,0.2123,0.2141,0.2155,0.2156,0.2135,0.2171,0.218,0.2246,0.2289,0.2209,0.2213,0.2421,0.2425,0.243,0.2489,0,0,0,0,0,0,0.2002,0.2018,0.205,0.2073,0.2087,0.218,0.2126,0.2126,0.215,0.2145,0.2171,0.2173,0.2169,0.2239,0.2251,0.2294,0.2217,0.2417,0.2423,0.2428,0.2484,0.2495,0.2505,0,0,0,0,0,0.1997,0.2065,0.2052,0.2065,0.2128,0.2183,0.2191,0.2185,0.2153,0.2186,0.2194,0.2172,0.2282,0.2246,0.2259,0.2305,0.2414,0.2421,0.2428,0.2479,0.2493,0.2505,0,0,0,0,0,0,0.2048,0.2068,0.2054,0.2131,0.2155,0.2176,0.2217,0.22,0.2234,0.2228,0.2219,0.2225,0.2294,0.2306,0.2265,0.2387,0.2343,0.2353,0.2378,0.2391,0.2402,0.2398,0.2221,0,0,0,0,0,0.2067,0.211,0.2125,0.2192,0.2205,0.2209,0.2232,0.2225,0.225,0.226,0.2273,0.2298,0.2338,0.2365,0.2403,0.2484,0.249,0.2522,0.2533,0.2541,0.255,0.2594,0.2609,0.2453,0.2453,0.2453,0,0,0.2109,0.2126,0.2153,0.2203,0.2221,0.2265,0.2218,0.2267,0.2299,0.2268,0.2331,0.2341,0.2369,0.2443,0.2476,0.2455,0.2594,0.255,0.2557,0.2561,0.2602,0.2617,0.263,0.2458,0.2457,0.2456,0,0,0.2209,0.2225,0.2282,0.2301,0.2328,0.233,0.2344,0.2367,0.2372,0.2435,0.2412,0.2451,0.252,0.254,0.256,0.2665,0.2646,0.2677,0.2734,0.2777,0.2789,0.28,0.2838,0.2852,0.2686,0.2686,0.2686,0,0.2258,0.2323,0.2314,0.2365,0.2387,0.2359,0.2418,0.2436,0.2475,0.2491,0.2465,0.2551,0.2568,0.2646,0.2672,0.2688,0.2703,0.2675,0.2788,0.2799,0.2809,0.2845,0.286,0.269,0.2689,0.2689,0.2688,0,0.2382,0.2428,0.2471,0.2508,0.2535,0.2589,0.2588,0.2617,0.2607,0.2611,0.2675,0.2694,0.2734,0.2752,0.2743,0.2829,0.2815,0.2789,0.2745,0.2828,0.2862,0.2875,0.2695,0.2693,0.2692,0.2691,0,0,0.2516,0.2547,0.2563,0.2579,0.2607,0.2642,0.2695,0.2734,0.2759,0.2785,0.2829,0.2888,0.2864,0.2886,0.2879,0.2916,0.2999,0.2886,0.2886,0.2907,0.3095,0.3115,0.3131,0.2985,0.2988,0.299,0.3092,0,0.2618,0.2709,0.2702,0.2788,0.283,0.2804,0.285,0.2871,0.2876,0.2913,0.2918,0.296,0.2925,0.2938,0.2973,0.2981,0.3036,0.2973,0.3027,0.3029,0.3022,0.3148,0.317,0.3266,0.3106,0.3108,0.3109,0,0.2748,0.278,0.287,0.2891,0.2908,0.2949,0.2984,0.3019,0.3043,0.3044,0.3068,0.3054,0.3107,0.306,0.3132,0.309,0.311,0.3117,0.3121,0.3127,0.3075,0.3159,0.3296,0.3311,0.313,0.3128,0.3127,0,0.2838,0.2903,0.2965,0.298,0.3005,0.3035,0.3047,0.3067,0.3091,0.3122,0.3137,0.3173,0.3193,0.3222,0.3218,0.3184,0.3291,0.3244,0.3294,0.3294,0.3319,0.3318,0.3463,0.3331,0.333,0.333,0.333,0,0.2953,0.301,0.3006,0.3044,0.3107,0.3097,0.3159,0.3168,0.3186,0.3226,0.3205,0.3242,0.3234,0.3272,0.3269,0.3329,0.3338,0.3341,0.3339,0.3343,0.3343,0.3358,0.3352,0.3334,0.3333,0.3332,0.3332,0,0.3064,0.3064,0.313,0.3148,0.3154,0.32,0.3215,0.3251,0.3254,0.3304,0.3315,0.3319,0.3362,0.3361,0.3409,0.3407,0.3482,0.3472,0.3474,0.3472,0.3522,0.3518,0.3683,0.3704,0.3557,0.3559,0.356,0,0.3138,0.3181,0.3203,0.3228,0.3242,0.3282,0.3306,0.3298,0.3324,0.3354,0.3386,0.3427,0.3459,0.3529,0.3536,0.3573,0.3565,0.362,0.357,0.3572,0.3566,0.3564,0.3569,0.363,0.3632,0.3633,0.3634,0,0.3269,0.3267,0.3302,0.3338,0.3367,0.3394,0.3419,0.3441,0.3435,0.3465,0.3508,0.3533,0.3582,0.3623,0.3658,0.367,0.3652,0.3649,0.3663,0.3668,0.3668,0.3669,0.3502,0.3646,0.3645,0.3644,0.3643,0.3643,0.3365,0.3402,0.3423,0.3463,0.3481,0.3505,0.3539,0.3546,0.3582,0.3621,0.3614,0.3662,0.3684,0.3729,0.3744,0.3781,0.3762,0.3781,0.3786,0.3792,0.3798,0.366,0.3788,0.3787,0.3787,0.3787,0.3786,0,0.3496,0.3508,0.3545,0.358,0.3611,0.359,0.3617,0.3644,0.3687,0.3709,0.3741,0.379,0.3829,0.3839,0.3876,0.3904,0.3897,0.3914,0.3913,0.3916,0.3813,0.3798,0.392,0.392,0.392,0.392,0.392,0.392,0.3568,0.3629,0.3629,0.3698,0.3709,0.3757,0.3774,0.3795,0.3812,0.3869,0.3901,0.3906,0.3923,0.3961,0.3996,0.3998,0.4013,0.4034,0.4033,0.3937,0.3923,0.3911,0.3896,0.4037,0.4037,0.4133,0.4134,0.4134]}]]